Theta_e
335 334 332 332 333 333 334 333 332 332 332 332 333 331 330 328 328 330 330 340 345 349 352 356 356 354 353 351 350 351 350 349 348 347 346 346 347 347 345 345 345 344 343
332 332 333 332 333 334 333 334 333 331 330 330 330 331 330 329 329 329 330 330 342 349 351 353 355 354 354 352 351 351 350 349 349 347 346 345 345 347 345 345 345 344 343
334 332 332 333 334 334 334 334 333 332 330 330 330 331 331 332 332 332 332 330 333 345 349 350 352 354 355 354 353 352 351 350 349 347 345 344 344 344 346 345 345 345 344
337 334 333 334 337 336 336 335 335 333 332 332 331 331 331 330 330 331 332 332 331 333 344 349 350 352 353 354 354 354 351 350 349 346 344 344 343 343 344 345 346 345 344
339 334 335 337 337 337 337 337 335 334 331 330 330 329 329 329 330 334 334 335 332 333 333 341 348 349 350 352 353 354 351 350 347 345 345 344 343 343 343 344 345 345 344
342 338 335 334 338 337 336 335 334 333 332 330 331 332 331 333 333 333 336 337 334 334 334 334 335 341 348 349 351 352 351 349 346 346 344 343 343 343 343 343 345 345 345
342 342 341 340 338 338 337 337 334 333 331 333 330 329 330 332 332 334 333 333 335 337 336 335 335 335 338 347 347 349 349 350 348 346 343 341 342 342 342 342 343 344 344
341 342 342 341 341 338 336 335 332 330 330 333 327 328 324 327 326 330 332 335 336 337 339 338 337 336 336 336 338 346 348 349 348 347 343 340 341 342 342 342 342 342 343
346 343 342 341 341 340 339 337 334 331 330 330 330 327 319 318 318 323 328 331 332 336 337 338 337 338 338 337 339 342 345 346 347 348 345 342 341 342 342 341 340 341 342
338 344 344 343 341 340 338 337 337 335 331 330 331 333 330 324 322 320 324 328 330 333 334 336 338 339 339 337 340 341 339 341 345 347 346 344 344 344 343 342 341 340 341
336 337 339 337 340 340 340 338 335 334 331 330 329 329 331 331 326 325 323 323 322 327 334 335 336 338 339 339 337 337 337 337 337 339 341 342 343 343 343 343 342 340 340
331 334 336 336 337 335 332 332 338 335 332 331 331 331 330 327 325 327 325 326 321 325 330 334 336 337 337 337 340 338 334 333 331 332 333 335 338 341 340 342 342 342 340
327 329 332 333 333 335 337 338 338 336 333 332 333 333 334 334 332 325 321 322 320 327 330 333 334 335 336 335 337 338 336 330 327 327 327 329 331 333 336 337 339 339 340
323 325 328 331 334 336 337 337 336 335 334 334 334 335 335 336 335 330 327 324 324 327 328 326 329 332 333 333 333 333 332 329 325 324 323 325 327 328 330 331 332 334 335
323 323 322 325 329 331 334 334 333 334 335 336 335 335 334 334 336 336 333 331 329 323 325 325 326 328 329 330 331 331 330 328 327 323 323 322 323 323 324 325 327 328 330
317 319 319 322 326 328 328 328 330 332 332 332 330 328 330 334 334 338 336 335 332 330 327 326 326 326 327 330 331 328 329 328 325 324 324 322 320 320 321 322 323 325 326
315 317 320 321 323 324 327 329 332 333 334 334 333 330 331 333 332 336 339 336 335 332 328 330 323 324 324 324 326 326 327 326 324 322 323 321 318 317 318 320 320 322 322
317 319 320 322 323 324 324 324 326 330 333 331 332 332 332 334 333 336 338 337 333 329 328 325 322 323 322 321 323 324 325 329 325 321 318 317 314 312 313 314 314 315 315
315 317 319 320 321 322 321 322 325 327 328 331 336 338 336 336 337 340 341 336 332 329 327 322 321 321 320 320 321 321 320 320 325 323 318 316 315 314 313 314 315 315 314
312 314 317 319 321 322 323 323 323 323 327 329 333 335 341 341 340 339 340 336 328 327 325 322 319 319 319 319 319 317 316 317 317 321 320 318 316 316 315 315 317 318 314
308 309 310 312 317 320 320 320 321 321 322 323 327 333 337 337 332 334 340 335 328 326 321 319 317 316 316 316 317 316 315 315 315 317 319 320 321 321 319 316 321 320 314
305 305 306 307 307 309 306 309 314 318 320 321 322 327 333 330 330 320 319 321 327 326 323 321 317 316 316 316 315 315 313 312 314 319 318 318 322 321 322 322 317 312 310
303 304 305 308 310 312 306 305 308 316 317 317 320 323 328 334 328 338 320 314 315 315 319 325 319 318 316 317 317 314 313 313 314 315 317 314 323 320 323 320 313 310 307
302 303 305 307 308 313 307 304 305 312 314 318 321 324 326 331 334 333 330 326 325 323 321 324 323 321 321 319 320 318 317 316 316 316 316 313 313 316 322 322 310 308 305
301 302 305 306 307 309 304 302 304 315 318 320 323 326 329 333 317 305 326 324 321 319 311 306 308 306 304 304 314 319 315 316 315 317 319 313 314 318 320 320 317 307 304
303 305 305 306 307 310 306 300 303 316 316 319 322 325 313 320 303 303 325 323 319 318 318 317 317 312 310 307 306 320 319 318 317 316 320 316 316 317 313 318 320 315 313
Wind_Speed
6 4 4 4 4 3 3 4 4 3 5 5 5 5 6 6 6 3 4 13 14 11 12 14 12 12 12 12 12 12 12 13 12 11 10 11 12 12 13 14 13 12 12
4 4 4 4 4 4 4 4 4 4 4 4 5 6 7 7 6 6 5 6 12 12 13 13 13 12 13 13 13 13 12 12 13 12 11 11 11 13 15 15 14 14 13
7 6 5 5 5 4 5 4 4 3 4 3 6 4 5 7 5 7 7 5 6 12 14 14 15 14 15 16 15 15 13 13 13 13 12 12 12 13 14 16 15 15 15
10 6 6 7 5 5 4 4 4 4 4 4 3 4 4 4 6 7 6 7 4 4 10 17 17 15 15 16 16 16 14 12 13 14 13 13 14 13 14 15 16 16 15
11 8 7 4 4 4 5 4 4 3 3 3 3 4 4 5 6 5 8 9 6 6 6 10 16 15 15 15 16 17 15 13 13 12 13 14 14 15 15 15 16 16 16
11 9 5 5 5 4 4 3 5 3 3 2 3 3 5 6 5 5 9 5 5 7 7 7 4 7 15 14 14 16 14 14 14 12 12 14 15 15 15 15 16 16 16
9 10 6 4 5 6 5 4 2 4 2 3 0 3 3 5 6 6 4 3 7 6 6 5 4 5 5 13 12 13 14 14 16 13 11 12 15 16 16 16 16 16 16
8 8 9 4 5 4 3 5 3 1 2 4 2 2 5 4 4 5 2 4 6 4 6 6 7 8 6 4 6 12 13 14 15 12 12 13 15 16 17 16 16 17 17
7 7 5 5 5 4 6 5 4 6 4 3 4 4 1 4 3 3 2 3 6 4 4 6 6 8 7 5 6 7 12 12 12 12 13 13 14 16 17 17 17 17 17
4 5 12 10 6 5 3 4 3 5 3 5 1 4 3 4 1 8 3 3 4 5 6 4 5 7 7 4 9 10 10 11 10 13 12 11 14 15 16 17 18 18 18
5 6 8 7 10 6 7 2 5 6 5 4 4 2 4 3 3 6 14 4 2 4 5 4 5 6 6 5 5 6 12 12 9 10 10 11 12 14 15 16 18 18 18
3 5 4 5 9 13 17 17 11 11 8 6 4 4 5 3 4 4 6 6 5 4 4 4 6 5 5 5 7 9 11 11 10 10 11 9 9 10 13 15 17 18 18
2 5 4 6 6 6 7 8 11 15 11 7 8 7 6 9 6 4 3 6 4 4 5 4 5 4 4 4 5 9 7 8 7 9 7 8 6 8 8 10 11 16 16
3 3 5 5 5 7 8 7 7 8 5 6 11 9 7 8 6 7 6 4 5 2 11 16 2 5 4 4 5 6 3 3 3 5 5 7 6 7 8 9 10 11 12
3 3 2 4 4 5 5 5 4 6 4 8 9 7 7 9 6 6 9 9 9 4 8 4 3 3 2 2 4 4 4 5 5 4 6 6 7 7 7 8 10 10 9
2 2 4 4 4 5 5 5 6 8 6 6 6 5 8 9 5 4 7 9 8 6 8 3 4 3 1 2 4 4 5 5 3 4 5 7 8 7 7 8 8 7 6
3 5 5 5 6 6 5 5 6 7 8 9 5 7 11 12 8 7 7 7 5 6 9 6 3 2 1 3 3 4 3 3 1 2 4 6 6 6 6 7 7 6 5
5 6 5 5 6 6 6 5 5 7 7 7 8 8 12 7 13 9 6 7 6 8 7 10 4 3 1 1 3 3 2 2 1 1 3 5 5 4 6 6 5 5 5
4 4 5 6 6 6 6 6 6 7 7 9 10 11 12 9 11 7 7 8 6 5 6 4 3 1 0 2 3 2 1 2 0 2 1 2 4 4 5 5 6 6 6
3 2 3 4 6 6 6 7 6 7 7 9 10 13 12 11 12 9 9 9 7 6 6 3 3 3 2 1 3 3 2 1 1 1 1 1 2 3 4 4 6 5 5
3 3 5 4 6 6 6 7 7 7 7 8 8 12 13 13 15 13 8 8 8 6 4 4 3 2 3 3 4 3 2 1 1 3 2 1 2 2 2 4 4 4 6
5 4 5 5 7 8 12 14 11 6 6 7 10 12 12 14 15 15 16 12 11 9 8 5 4 4 5 4 4 4 4 2 2 3 3 2 3 3 3 3 5 5 6
6 6 6 6 8 10 14 15 15 5 6 7 8 11 12 10 10 11 11 11 10 12 8 11 6 6 5 7 7 5 4 4 4 2 3 2 3 3 3 2 6 6 5
7 7 7 7 8 9 14 15 15 6 6 7 10 12 12 14 10 10 9 7 7 6 4 4 6 6 5 6 7 6 6 4 2 1 3 3 1 2 1 2 3 6 5
6 7 7 8 7 8 13 15 11 5 5 8 9 10 12 12 9 11 7 7 6 2 2 6 5 4 6 8 8 6 4 4 2 3 4 3 2 2 2 2 2 5 5
9 8 10 7 10 10 13 14 9 3 4 4 6 8 12 10 13 14 10 9 8 5 5 4 4 6 5 3 6 4 6 6 3 2 3 4 3 3 2 1 2 3 2
Wind_Direction
195 181 202 194 204 191 198 215 211 224 239 245 246 247 260 261 253 246 250 268 270 268 232 224 224 232 237 236 230 228 227 224 225 226 228 234 233 237 237 233 236 229 225
191 184 190 204 212 200 195 203 208 216 233 225 247 241 246 257 259 261 255 253 252 247 234 227 228 229 241 240 231 231 233 228 230 228 225 234 236 231 237 240 236 237 230
188 190 196 206 207 199 213 201 217 216 245 230 249 252 234 250 255 260 268 246 245 238 231 230 228 220 230 238 234 228 226 225 229 232 231 229 237 235 228 237 239 235 231
195 200 201 215 196 184 190 204 216 233 224 232 252 265 281 283 284 275 274 266 250 253 239 230 229 222 223 239 239 232 228 221 225 232 228 230 232 236 230 230 238 239 236
199 191 199 229 205 206 188 194 215 211 239 244 248 246 262 264 251 262 261 266 242 241 240 248 235 223 221 229 238 238 233 226 235 227 225 230 231 232 234 227 231 237 234
191 195 202 186 201 207 216 183 200 210 245 186 266 266 245 251 250 246 266 285 271 250 242 232 230 244 226 220 231 240 236 232 238 231 225 226 227 230 231 230 229 232 232
200 180 211 209 199 207 220 211 185 190 222 194 8 308 286 274 275 246 250 263 269 261 251 241 219 245 242 219 223 234 238 231 235 235 231 231 230 229 232 230 230 233 232
188 209 162 191 218 195 190 206 179 202 201 204 185 103 324 331 312 293 296 269 275 285 267 232 225 225 233 209 208 225 238 238 238 239 237 234 233 233 232 231 230 232 232
179 174 165 141 236 210 200 206 184 189 199 236 220 159 340 244 324 302 290 275 293 286 284 274 245 241 225 202 203 215 231 235 245 246 250 234 240 240 233 230 231 231 230
295 233 168 163 189 240 278 214 210 216 161 230 215 229 216 155 245 318 306 283 280 278 285 276 258 252 240 200 206 210 221 223 247 255 253 251 247 250 241 231 230 230 230
196 268 293 225 187 175 254 170 244 239 198 176 192 179 225 206 170 222 291 285 311 254 258 248 250 251 241 213 202 208 212 225 231 245 251 245 241 247 253 238 230 232 229
173 200 241 293 261 232 230 233 235 220 207 204 190 195 209 192 215 197 250 287 270 278 262 276 264 246 243 219 213 201 209 219 218 233 245 242 255 254 260 251 238 233 236
206 216 198 215 225 240 262 243 213 221 198 192 200 208 207 225 232 210 201 268 273 317 311 264 260 253 235 224 221 199 205 227 227 240 247 256 254 265 268 276 264 243 238
206 199 203 224 215 210 211 214 221 241 240 210 202 201 221 224 208 180 227 223 268 39 315 273 265 263 237 218 211 177 188 208 241 247 251 248 241 243 249 258 261 262 243
206 236 262 274 270 222 202 208 232 244 244 234 230 222 241 250 240 157 216 221 231 260 258 241 264 265 250 189 194 180 157 198 200 209 254 257 256 259 257 257 253 247 237
242 269 270 258 247 241 219 217 241 249 243 254 256 248 249 244 227 169 209 224 213 215 261 194 243 247 343 106 192 144 148 160 174 223 251 250 252 255 255 253 247 238 228
257 265 238 239 251 246 235 215 236 261 260 262 244 253 256 251 236 224 219 224 223 199 242 273 240 249 118 133 131 98 118 110 23 285 261 267 265 262 251 246 239 233 224
210 219 237 257 261 255 261 251 264 276 254 269 270 248 240 246 259 257 231 239 212 209 218 241 219 216 162 202 103 105 112 97 121 79 315 294 297 280 262 256 248 242 234
213 212 204 219 229 238 250 244 237 260 271 274 269 257 254 236 253 254 235 239 212 203 204 205 212 89 217 122 84 50 140 99 118 70 326 309 301 278 249 239 237 235 235
225 267 246 244 247 243 236 245 239 252 263 271 271 275 274 267 258 247 235 226 203 200 208 197 150 169 173 168 122 153 209 211 191 131 59 40 272 270 247 240 240 245 244
255 249 265 266 258 253 256 239 236 235 243 263 267 271 269 262 251 239 233 229 197 204 155 165 163 170 178 164 183 162 163 162 241 197 173 181 213 239 244 246 251 253 254
226 246 267 269 278 277 267 242 234 233 244 257 275 274 267 261 261 246 231 217 195 182 182 170 172 192 201 179 133 159 138 148 226 204 160 228 197 220 224 233 243 242 247
242 253 250 250 263 270 265 247 242 230 236 251 263 275 277 272 259 258 245 231 212 216 182 174 174 198 171 184 139 157 163 161 194 203 129 223 208 234 225 242 234 233 226
215 221 230 235 254 266 255 245 245 242 250 249 254 261 263 271 260 239 232 206 204 206 184 180 179 176 183 161 171 164 163 144 83 119 140 196 242 252 204 262 284 221 206
215 218 229 238 237 250 248 246 248 241 243 254 259 261 259 263 245 216 192 160 119 191 24 77 107 137 175 165 147 115 146 148 178 209 182 149 219 222 233 231 231 220 197
219 226 235 219 229 249 260 243 225 201 243 257 273 265 261 246 180 181 157 149 161 191 165 131 99 78 103 141 158 154 150 164 133 185 204 167 170 174 266 297 231 188 196